Weather History for KSNT - September, 2013

Change the Weather History Date:

Saturday, September 7, 2013

  Actual Average Record
Temperature  
Mean Temperature 53 °F 50 °F  
Max Temperature 77 °F 70 °F 86 °F (1979)
Min Temperature 29 °F 30 °F 16 °F (1923)
Degree Days  
Heating Degree Days 12 15  
Month to date heating degree days 38 100  
Since 1 July heating degree days 365 620  
Cooling Degree Days 0 0  
Month to date cooling degree days 0 0  
Year to date cooling degree days 19 3  
Growing Degree Days 4 (Base 50)    
Moisture  
Dew Point 28 °F    
Average Humidity 49    
Maximum Humidity 85    
Minimum Humidity 13    
Precipitation  
Precipitation 0.00 in 0.04 in 0.43 in (1918)
Month to date precipitation 0.25 0.25  
Year to date precipitation 6.70 11.54  
Sea Level Pressure  
Sea Level Pressure 30.02 in    
Wind  
Wind Speed 3 mph (South)    
Max Wind Speed 14 mph    
Max Gust Speed 21 mph    
T = Trace of Precipitation, MM = Missing Value Source: NWS Daily Summary

Daily Weather History Graph

Daily Weather History Graph

Search for Another Location

Airport or City:

Trip Planner

Search our weather history database for the weather conditions in past years. The results will help you decide how hot, cold, wet, or windy it might be!

Date:

Astronomy

Sep. 07, 2013 Rise Set
Actual Time 7:10 AM MDT 8:04 PM MDT
Civil Twilight 6:40 AM MDT 8:33 PM MDT
Nautical Twilight 6:05 AM MDT 9:08 PM MDT
Astronomical Twilight 5:28 AM MDT 9:45 PM MDT
Moon 9:35 AM MDT (9/7) 8:57 PM MDT (9/7)
Length of Visible Light 13h 53m
Length of Day
12h 54m
Waxing Crescent, 5% of the Moon is Illuminated
Sep 7
Waxing Crescent
Sep 12
First Quarter
Sep 19
Full
Sep 26
Last Quarter
Oct 4
New

Hourly Weather History & Observations

Time (MDT) Temp. Windchill Dew Point Humidity Pressure Visibility Wind Dir Wind Speed Gust Speed Precip Events Conditions
12:51 AM 42.1 °F 39.2 °F 28.9 °F 60% 30.01 in - East 4.6 mph - N/A   Unknown
1:51 AM 41.0 °F 39.0 °F 30.0 °F 65% 30.03 in - East 3.5 mph - N/A   Unknown
2:51 AM 36.0 °F - 28.9 °F 76% 30.04 in - Calm Calm - N/A   Unknown
3:51 AM 35.1 °F - 28.0 °F 76% 30.04 in - Calm Calm - N/A   Unknown
4:51 AM 32.0 °F - 27.0 °F 82% 30.05 in - Calm Calm - N/A   Unknown
5:51 AM 30.9 °F - 27.0 °F 85% 30.06 in - Calm Calm - N/A   Unknown
6:51 AM 30.0 °F - 26.1 °F 85% 30.07 in - Calm Calm - N/A   Unknown
7:51 AM 32.0 °F - 28.0 °F 85% 30.11 in - Calm Calm - N/A   Unknown
8:51 AM 39.0 °F - 30.9 °F 73% 30.11 in - Calm Calm - N/A   Unknown
9:51 AM 46.9 °F - 32.0 °F 56% 30.10 in - North 3.5 mph - N/A   Unknown
10:51 AM 55.9 °F - 32.0 °F 40% 30.06 in - North 3.5 mph - N/A   Unknown
11:51 AM 64.9 °F - 34.0 °F 32% 30.03 in - Variable 4.6 mph - N/A   Unknown
12:51 PM 71.1 °F - 30.0 °F 22% 29.98 in - NNE 6.9 mph - N/A   Unknown
1:51 PM 75.0 °F - 21.0 °F 13% 29.94 in - South 10.4 mph - N/A   Unknown
2:51 PM 75.9 °F - 21.9 °F 13% 29.95 in - South 5.8 mph - N/A   Unknown
3:51 PM 77.0 °F - 23.0 °F 13% 29.93 in - Calm Calm - N/A   Unknown
4:51 PM 75.9 °F - 25.0 °F 15% 29.94 in - WSW 9.2 mph 20.7 mph N/A   Unknown
5:51 PM 75.0 °F - 26.1 °F 16% 29.95 in - SSW 6.9 mph - N/A   Unknown
6:51 PM 73.0 °F - 25.0 °F 17% 29.96 in - WSW 6.9 mph - N/A   Unknown
7:51 PM 66.9 °F - 27.0 °F 22% 29.98 in - WSW 3.5 mph - N/A   Unknown
8:51 PM 55.0 °F - 30.0 °F 38% 30.03 in - Calm Calm - N/A   Unknown
9:51 PM 52.0 °F - 30.0 °F 43% 30.02 in - South 3.5 mph - N/A   Unknown
10:51 PM 50.0 °F - 30.0 °F 46% 30.01 in - SSE 3.5 mph - N/A   Unknown
11:51 PM 48.0 °F - 30.0 °F 50% 29.97 in - South 3.5 mph - N/A   Unknown